Tracking 28531 objects as of 27-Feb-2024
HD Live streaming from Space Station
objects crossing your sky now

TITAN 3C TRANSTAGE DEB

Track TITAN 3C TRANSTAGE DEB now!


NORAD ID: 43515
Int'l Code: 1969-013T
Perigee: 35,900.5 km
Apogee: 38,509.2 km
Inclination: 1.0 °
Period: 1,508.8 minutes
Semi major axis: 43575 km
RCS: Unknown
Launch date: February 9, 1969
Source: United States (US)
Launch site: ()

Note: This is SATELLITE DEBRIS
Your satellite tracking list
Your tracking list is empty




NASA's NSSDC Master Catalog

Two Line Element Set (TLE):
1 43515U 69013T   24055.85286991 -.00000114  00000-0  00000+0 0  9997
2 43515   0.9698 324.6626 0299327 226.5473 168.0924  0.95440908 20160
Source of the keplerian elements: AFSPC